Regional Weather Roundup
Issued by NWS

Home | Current Version | Previous Version | Graphics & Text | Print | Product List | Glossary On
Versions: 1 2 3 4 5 6 7 8 9 10 11 12 13 14 15 16 17 18 19 20 21 22 23 24 25 26 27 28 29 30 31 32 33 34 35 36 37 38 39 40 41 42 43 44 45 46 47 48 49 50
000
ASUS43 KLOT 261802
RWRIL

ILLINOIS REGIONAL WEATHER ROUNDUP
NATIONAL WEATHER SERVICE CHICAGO/ROMEOVILLE IL
100 PM CDT SUN APR 26 2015

NOTE: "FAIR" INDICATES FEW OR NO CLOUDS BELOW 12,000 FEET WITH NO
SIGNIFICANT WEATHER AND/OR OBSTRUCTIONS TO VISIBILITY.

* THESE STATIONS ARE NOT UNDER NWS QUALITY CONTROL. THEY ALSO MAY NOT
  REPORT WEATHER SUCH AS PRECIPITATION OR FOG.

ILZ001-002-007-009-015-016-024-261900-
NORTHWEST ILLINOIS

CITY           SKY/WX    TMP DP  RH WIND       PRES   REMARKS
MOLINE         SUNNY     57  32  38 NE12      30.04F
6HR MIN TEMP:  39; 6HR MAX TEMP:  57;

STERLING*      MOSUNNY   57  36  44 E6        30.05S
$$

ILZ003-004-008-010-011-017-018-261900-
NORTH CENTRAL ILLINOIS

CITY           SKY/WX    TMP DP  RH WIND       PRES   REMARKS
ROCKFORD       MOSUNNY   56  29  35 N10       30.06F
6HR MIN TEMP:  35; 6HR MAX TEMP:  57;

FREEPORT*      SUNNY     54  30  40 E5        30.07S
$$

ILZ005-006-012>014-019>023-261900-
NORTHEAST ILLINOIS

CITY           SKY/WX    TMP DP  RH WIND       PRES   REMARKS
CHICAGO-OHARE  MOSUNNY   53  27  36 N17       30.02F
6HR MIN TEMP:  38; 6HR MAX TEMP:  54;

CHICAGO-MIDWAY MOSUNNY   55  28  35 N15       30.02F
6HR MIN TEMP:  43; 6HR MAX TEMP:  55;

AURORA         MOSUNNY   55  31  39 N13       30.02F
6HR MIN TEMP:  37; 6HR MAX TEMP:  55;

LANSING*       SUNNY     50  32  50 NE13      30.02S
WAUKEGAN       SUNNY     52  29  41 N10G21    30.02F
6HR MIN TEMP:  38; 6HR MAX TEMP:  53;

DUPAGE AIRPORT SUNNY     55  30  38 NE10      30.01F
6HR MIN TEMP:  35; 6HR MAX TEMP:  56;

WHEELING       SUNNY     53  27  36 NE13G18   30.04S
6HR MIN TEMP:  39; 6HR MAX TEMP:  53;

NORTHERLY ISL    N/A     46  36  68 MISG        N/A
$$

LMZ740>746-261900-
SOUTHERN LAKE MICHIGAN

STATION/POSITION SKY/WX   TEMP    WIND        PRES    VSBY  WAVE
                          AIR SEA DIR/SP/G                  HT/PER
                          (F)     (DEG/KT/KT) (MB)    (MI)  (FT/S)
HARRISON CRIB              38     350/ 16/ 18   N/A
BURNHAM HARBOR             43     350/ 14       N/A
CALUMET HARBOR             43     340/ 13/ 16   N/A
BURNS HARBOR               41      10/ 12/ 14 1017.3S
MICHIGAN CITY              41     340/ 13/ 15   N/A
MICHIGAN CITY 6N           39 45  360/ 12/ 14   N/A           3/ 6
$$

ILZ025>027-034>036-040-047-049-050-058-095>099-261900-
WEST-CENTRAL ILLINOIS

CITY           SKY/WX    TMP DP  RH WIND       PRES   REMARKS
QUINCY         SUNNY     59  33  37 NE15      30.00F
MACOMB*        SUNNY     56  35  44 NE15      30.04S
$$

ILZ028>032-037-038-041>044-048-051>054-059>061-261900-
CENTRAL ILLINOIS

CITY           SKY/WX    TMP DP  RH WIND       PRES   REMARKS
DECATUR        SUNNY     57  38  48 N18       29.97F
PEORIA         SUNNY     58  34  40 E14       30.01F
6HR MIN TEMP:  40; 6HR MAX TEMP:  59;

LINCOLN*       SUNNY     57  38  47 NE14      29.99S
SPRINGFIELD    SUNNY     58  36  43 NE12G21   29.99S
6HR MIN TEMP:  41; 6HR MAX TEMP:  59;

TAYLORVILLE    NOT AVBL
$$

ILZ033-039-045-046-055>057-062-063-261900-
EAST-CENTRAL ILLINOIS

CITY           SKY/WX    TMP DP  RH WIND       PRES   REMARKS
CHAMPAIGN      SUNNY     55  37  50 NE16G25   29.97S
MATTOON        MOSUNNY   55  38  52 N18G24    29.94F
$$

ILZ079-100>102-261900-
SOUTHWEST ILLINOIS

CITY           SKY/WX    TMP DP  RH WIND       PRES   REMARKS
BELLEVILLE     SUNNY     59  38  45 NE9G18    29.93F
CAHOKIA*       SUNNY     61  39  44 NE10      29.94F
SPARTA*        SUNNY     57  40  51 NE12G18   29.93F
$$

ILZ064>066-069>071-074>076-080>082-084>086-088>090-092>094-261900-
SOUTH-CENTRAL ILLINOIS

CITY           SKY/WX    TMP DP  RH WIND       PRES   REMARKS
CARBONDALE     SUNNY     59  40  49 NE13G21   29.90F
6HR MIN TEMP:  48; 6HR MAX TEMP:  60;

MARION         MOSUNNY   61  43  51 NE14      29.91F
MT. VERNON     SUNNY     59  37  44 NE8G16    29.93S
SALEM*         SUNNY     60  36  40 NE13G23   29.94S
$$

ILZ067-068-072-073-078-083-087-091-261900-
SOUTHEAST ILLINOIS

CITY           SKY/WX    TMP DP  RH WIND       PRES   REMARKS
LAWRENCEVILLE  SUNNY     59  36  42 NE16G23   29.91F
FLORA*         SUNNY     58  34  40 NE14      29.93S
HARRISBURG*    SUNNY     59  42  53 NE12      29.91F
ROBINSON*      SUNNY     58  34  39 N8G17     29.93S
CARMI*         SUNNY     59  32  35 N7G18     29.89F
$$

ABBREVIATIONS USED IN REMARKS
   TC - TEMPERATURE IN CELSIUS
  WCI - WIND CHILL INDEX
   HX - HEAT INDEX
  VSB - VISIBILITY
$$



USA.gov is the U.S. government's official web portal to all federal, state and local government web resources and services.